Radiation Dose at Monitoring Post of Fukushima Daini Nuclear Power Station
Date,Time,MP-1(microSv/h),MP-2(microSv/h),MP-3(microSv/h),MP-4(microSv/h),MP-5(microSv/h),MP-6(microSv/h),MP-7(microSv/h),Wind Direction,Wind Velocity(m/s),Rain
2020/09/07,00:00,0.178,0.162,0.263,0.248,0.244,0.139,0.084,south,2.5,No
2020/09/07,00:10,0.177,0.160,0.263,0.246,0.246,0.139,0.084,south,2.4,No
2020/09/07,00:20,0.176,0.160,0.260,0.249,0.244,0.138,0.084,south,3.0,Yes
2020/09/07,00:30,0.178,0.162,0.263,0.249,0.242,0.140,0.084,south,4.2,No
2020/09/07,00:40,0.177,0.162,0.263,0.248,0.245,0.139,0.084,south,4.0,No
2020/09/07,00:50,0.176,0.160,0.261,0.247,0.246,0.140,0.084,south,4.2,No
2020/09/07,01:00,0.176,0.161,0.262,0.252,0.243,0.139,0.083,south,4.1,No
2020/09/07,01:10,0.178,0.162,0.264,0.248,0.243,0.139,0.084,south,3.0,No
2020/09/07,01:20,0.177,0.160,0.262,0.247,0.247,0.138,0.084,south-southeast,1.6,No
2020/09/07,01:30,0.176,0.162,0.260,0.250,0.245,0.140,0.083,south-southeast,2.8,No
2020/09/07,01:40,0.179,0.161,0.263,0.247,0.243,0.140,0.084,south,4.1,No
2020/09/07,01:50,0.178,0.161,0.262,0.246,0.245,0.140,0.084,south,4.4,No
2020/09/07,02:00,0.176,0.161,0.261,0.249,0.247,0.139,0.083,south,4.9,No
2020/09/07,02:10,0.177,0.161,0.263,0.249,0.244,0.140,0.084,south,4.7,No
2020/09/07,02:20,0.178,0.160,0.264,0.246,0.244,0.140,0.084,south,4.4,No
2020/09/07,02:30,0.176,0.162,0.261,0.249,0.246,0.139,0.082,south,3.6,No
2020/09/07,02:40,0.176,0.161,0.263,0.249,0.246,0.139,0.083,south,3.2,No
2020/09/07,02:50,0.177,0.160,0.263,0.247,0.242,0.140,0.084,south,3.7,No
2020/09/07,03:00,0.178,0.161,0.260,0.248,0.246,0.139,0.083,south,3.8,No
2020/09/07,03:10,0.177,0.162,0.262,0.251,0.246,0.139,0.083,south,3.4,No
2020/09/07,03:20,0.179,0.160,0.264,0.248,0.243,0.140,0.084,south,3.0,Yes
2020/09/07,03:30,0.178,0.161,0.262,0.246,0.243,0.139,0.084,south,4.2,Yes
2020/09/07,03:40,0.177,0.162,0.262,0.249,0.247,0.139,0.084,south,4.3,No
2020/09/07,03:50,0.177,0.161,0.263,0.249,0.246,0.139,0.084,south,4.3,Yes
2020/09/07,04:00,0.178,0.161,0.262,0.247,0.243,0.140,0.084,south,4.5,Yes
2020/09/07,04:10,0.177,0.161,0.261,0.248,0.245,0.140,0.084,south,4.5,Yes
2020/09/07,04:20,0.176,0.161,0.264,0.251,0.247,0.139,0.083,south,4.5,Yes
2020/09/07,04:30,0.179,0.160,0.263,0.248,0.244,0.140,0.085,south,3.8,Yes
2020/09/07,04:40,0.178,0.162,0.260,0.246,0.242,0.140,0.084,south-southeast,4.6,No
2020/09/07,04:50,0.177,0.161,0.264,0.250,0.247,0.139,0.083,south,4.9,No
2020/09/07,05:00,0.176,0.161,0.262,0.248,0.246,0.141,0.084,south,4.5,No
2020/09/07,05:10,0.179,0.161,0.261,0.247,0.244,0.140,0.084,south,5.1,No
2020/09/07,05:20,0.177,0.161,0.262,0.249,0.242,0.139,0.084,south,5.6,No
2020/09/07,05:30,0.175,0.160,0.264,0.249,0.246,0.140,0.083,south,4.6,Yes
2020/09/07,05:40,0.177,0.161,0.262,0.247,0.245,0.140,0.084,south,5.7,Yes
2020/09/07,05:50,0.177,0.162,0.260,0.248,0.241,0.140,0.084,south,6.2,No
2020/09/07,06:00,0.177,0.160,0.264,0.250,0.245,0.139,0.083,south,7.0,No
2020/09/07,06:10,0.175,0.160,0.262,0.249,0.246,0.139,0.084,south,6.2,No
2020/09/07,06:20,0.178,0.161,0.261,0.247,0.244,0.140,0.084,south,4.9,No
2020/09/07,06:30,0.178,0.161,0.262,0.249,0.242,0.138,0.084,south,5.1,No
2020/09/07,06:40,0.177,0.160,0.263,0.250,0.245,0.138,0.083,south,5.7,No
2020/09/07,06:50,0.175,0.160,0.262,0.246,0.246,0.139,0.084,south,4.1,No
2020/09/07,07:00,0.179,0.162,0.260,0.245,0.244,0.139,0.084,south,4.5,No
2020/09/07,07:10,0.179,0.161,0.260,0.247,0.242,0.139,0.083,south,5.0,No
2020/09/07,07:20,0.177,0.159,0.263,0.249,0.242,0.138,0.083,south,4.6,Yes
2020/09/07,07:30,0.175,0.160,0.263,0.249,0.244,0.139,0.083,south,7.1,Yes
2020/09/07,07:40,0.176,0.160,0.262,0.248,0.246,0.139,0.083,south,7.4,Yes
2020/09/07,07:50,0.177,0.162,0.260,0.247,0.245,0.140,0.083,south,6.3,No
2020/09/07,08:00,0.178,0.161,0.260,0.246,0.244,0.140,0.083,south,6.1,No
2020/09/07,08:10,0.178,0.161,0.259,0.246,0.243,0.139,0.083,south,7.0,No
2020/09/07,08:20,0.177,0.160,0.260,0.247,0.243,0.139,0.084,south,6.2,No
2020/09/07,08:30,0.177,0.160,0.260,0.246,0.243,0.140,0.083,south,5.3,No
2020/09/07,08:40,0.175,0.160,0.261,0.246,0.243,0.140,0.083,south,5.7,No
2020/09/07,08:50,0.176,0.160,0.260,0.246,0.243,0.139,0.083,south,5.3,Yes
2020/09/07,09:00,0.177,0.160,0.263,0.250,0.242,0.139,0.083,south,6.0,Yes
2020/09/07,09:10,0.177,0.159,0.265,0.251,0.241,0.140,0.082,south,6.6,No
2020/09/07,09:20,0.177,0.159,0.263,0.249,0.244,0.141,0.083,south,4.3,No
2020/09/07,09:30,0.176,0.159,0.263,0.248,0.247,0.140,0.082,south,5.2,Yes
2020/09/07,09:40,0.177,0.159,0.262,0.247,0.247,0.138,0.082,south,7.2,No
2020/09/07,09:50,0.175,0.159,0.261,0.247,0.245,0.139,0.083,south,8.1,No
2020/09/07,10:00,0.176,0.159,0.260,0.247,0.244,0.138,0.082,south,7.6,No
2020/09/07,10:10,0.175,0.158,0.261,0.247,0.244,0.140,0.083,south,9.2,No
2020/09/07,10:20,0.175,0.160,0.261,0.248,0.243,0.140,0.083,south,7.6,No
2020/09/07,10:30,0.176,0.160,0.261,0.248,0.244,0.139,0.083,south-southeast,8.4,No
2020/09/07,10:40,0.176,0.159,0.262,0.247,0.244,0.140,0.083,south,9.0,No
2020/09/07,10:50,0.176,0.161,0.263,0.247,0.246,0.139,0.083,south,8.3,No
2020/09/07,11:00,0.176,0.160,0.262,0.248,0.244,0.140,0.083,south,10.0,No
2020/09/07,11:10,0.177,0.161,0.263,0.247,0.244,0.140,0.083,south,10.1,No
2020/09/07,11:20,0.176,0.160,0.261,0.247,0.244,0.140,0.084,south,11.1,No
2020/09/07,11:30,0.175,0.160,0.262,0.248,0.244,0.139,0.083,south,9.5,No
2020/09/07,11:40,0.175,0.160,0.263,0.248,0.245,0.139,0.081,south,9.3,No
2020/09/07,11:50,0.176,0.161,0.263,0.248,0.245,0.140,0.083,south,10.4,No
2020/09/07,12:00,0.175,0.161,0.263,0.248,0.245,0.140,0.082,south-southeast,9.2,No
2020/09/07,12:10,0.176,0.161,0.262,0.247,0.245,0.140,0.083,south,9.6,No
2020/09/07,12:20,0.176,0.161,0.261,0.247,0.244,0.139,0.083,south,9.3,No
2020/09/07,12:30,0.175,0.160,0.262,0.248,0.244,0.140,0.083,south,9.2,Yes
2020/09/07,12:40,0.176,0.160,0.261,0.248,0.244,0.140,0.083,south,7.9,Yes
2020/09/07,12:50,0.176,0.161,0.261,0.248,0.243,0.139,0.083,south,10.4,No
2020/09/07,13:00,0.177,0.160,0.261,0.248,0.245,0.139,0.083,south,10.7,No
2020/09/07,13:10,0.177,0.161,0.262,0.248,0.244,0.139,0.083,south-southeast,11.4,No
2020/09/07,13:20,0.176,0.161,0.263,0.249,0.243,0.141,0.083,south,11.4,No
2020/09/07,13:30,0.176,0.160,0.262,0.248,0.244,0.140,0.084,south,11.4,No
2020/09/07,13:40,0.176,0.160,0.262,0.249,0.244,0.139,0.083,south,9.0,Yes
2020/09/07,13:50,0.175,0.161,0.262,0.248,0.243,0.140,0.083,south,7.9,No
2020/09/07,14:00,0.174,0.160,0.262,0.248,0.244,0.140,0.082,south,8.2,No
2020/09/07,14:10,0.175,0.161,0.262,0.248,0.246,0.139,0.084,south-southeast,7.8,No
2020/09/07,14:20,0.176,0.161,0.261,0.249,0.245,0.140,0.083,south,7.3,No
2020/09/07,14:30,0.176,0.160,0.262,0.248,0.244,0.139,0.083,south-southeast,6.9,No
2020/09/07,14:40,0.176,0.160,0.262,0.248,0.243,0.140,0.083,south,8.2,No
2020/09/07,14:50,0.176,0.160,0.261,0.248,0.245,0.139,0.083,south,8.1,No
2020/09/07,15:00,0.177,0.160,0.262,0.248,0.244,0.141,0.083,south,8.6,No
2020/09/07,15:10,0.176,0.161,0.263,0.247,0.244,0.140,0.082,south,7.1,No
2020/09/07,15:20,0.176,0.161,0.261,0.249,0.245,0.140,0.084,south-southeast,5.0,No
2020/09/07,15:30,0.176,0.161,0.262,0.248,0.244,0.140,0.083,south,6.7,No
2020/09/07,15:40,0.176,0.160,0.264,0.249,0.244,0.140,0.083,south,6.2,No
2020/09/07,15:50,0.176,0.161,0.262,0.249,0.244,0.140,0.082,south,8.4,No
2020/09/07,16:00,0.175,0.161,0.262,0.248,0.245,0.140,0.083,south,9.3,No
2020/09/07,16:10,0.175,0.161,0.263,0.247,0.245,0.141,0.083,south,9.0,No
2020/09/07,16:20,0.177,0.161,0.263,0.247,0.245,0.140,0.083,south,8.2,No
2020/09/07,16:30,0.178,0.161,0.261,0.247,0.244,0.140,0.083,south,7.2,No
2020/09/07,16:40,0.177,0.160,0.262,0.248,0.243,0.140,0.084,south,4.9,No
2020/09/07,16:50,0.176,0.161,0.263,0.248,0.243,0.140,0.082,south,7.4,No
2020/09/07,17:00,0.177,0.160,0.263,0.248,0.244,0.140,0.083,south,6.6,No
2020/09/07,17:10,0.179,0.160,0.262,0.248,0.245,0.140,0.083,south,5.7,No
2020/09/07,17:20,0.179,0.159,0.264,0.253,0.244,0.139,0.084,south,6.7,No
2020/09/07,17:30,0.178,0.161,0.266,0.253,0.243,0.140,0.084,south,7.2,No
2020/09/07,17:40,0.176,0.161,0.265,0.250,0.243,0.141,0.084,south,7.3,No
2020/09/07,17:50,0.176,0.163,0.264,0.250,0.247,0.140,0.084,south,6.1,No
2020/09/07,18:00,0.176,0.161,0.262,0.248,0.247,0.139,0.083,south,7.2,No
2020/09/07,18:10,0.178,0.160,0.262,0.248,0.246,0.139,0.083,south,6.9,No
2020/09/07,18:20,0.179,0.159,0.264,0.252,0.244,0.140,0.083,south-southeast,7.6,No
2020/09/07,18:30,0.179,0.160,0.266,0.250,0.244,0.138,0.084,south,8.5,No
2020/09/07,18:40,0.176,0.162,0.264,0.249,0.244,0.141,0.084,south,8.1,No
2020/09/07,18:50,0.176,0.161,0.262,0.248,0.247,0.140,0.084,south,8.1,No
2020/09/07,19:00,0.176,0.160,0.262,0.247,0.247,0.139,0.083,south,7.7,No
2020/09/07,19:10,0.179,0.160,0.262,0.251,0.245,0.140,0.082,south,8.4,No
2020/09/07,19:20,0.179,0.160,0.265,0.252,0.243,0.139,0.084,south,9.5,No
2020/09/07,19:30,0.178,0.161,0.265,0.249,0.242,0.140,0.083,south,9.0,No
2020/09/07,19:40,0.177,0.162,0.264,0.248,0.247,0.141,0.084,south,8.3,No
2020/09/07,19:50,0.178,0.162,0.261,0.248,0.248,0.140,0.083,south,8.3,No
2020/09/07,20:00,0.179,0.160,0.263,0.250,0.245,0.139,0.083,south,8.4,No
2020/09/07,20:10,0.179,0.160,0.265,0.251,0.243,0.140,0.083,south,7.5,No
2020/09/07,20:20,0.178,0.162,0.265,0.249,0.242,0.140,0.084,south,8.7,No
2020/09/07,20:30,0.177,0.162,0.263,0.249,0.246,0.139,0.084,south,8.3,No
2020/09/07,20:40,0.176,0.161,0.262,0.248,0.247,0.139,0.083,south,10.0,No
2020/09/07,20:50,0.179,0.160,0.261,0.248,0.246,0.141,0.084,south,10.1,No
2020/09/07,21:00,0.178,0.159,0.266,0.252,0.245,0.141,0.083,south,10.1,No
2020/09/07,21:10,0.178,0.161,0.266,0.251,0.243,0.140,0.083,south,10.4,No
2020/09/07,21:20,0.177,0.162,0.264,0.251,0.243,0.140,0.083,south,9.5,No
2020/09/07,21:30,0.176,0.162,0.262,0.248,0.247,0.140,0.083,south,10.7,No
2020/09/07,21:40,0.178,0.161,0.262,0.248,0.247,0.140,0.084,south,10.1,No
2020/09/07,21:50,0.178,0.160,0.263,0.250,0.245,0.141,0.084,south,9.5,No
2020/09/07,22:00,0.178,0.159,0.267,0.253,0.244,0.141,0.083,south-southwest,9.3,No
2020/09/07,22:10,0.177,0.160,0.265,0.251,0.243,0.140,0.084,south,8.1,No
2020/09/07,22:20,0.177,0.162,0.263,0.250,0.244,0.140,0.083,south,9.0,No
2020/09/07,22:30,0.177,0.160,0.263,0.249,0.247,0.139,0.084,south,7.8,No
2020/09/07,22:40,0.179,0.161,0.263,0.247,0.246,0.140,0.084,south,9.0,No
2020/09/07,22:50,0.179,0.159,0.266,0.252,0.246,0.140,0.083,south,9.3,No
2020/09/07,23:00,0.177,0.161,0.266,0.251,0.243,0.141,0.084,south,8.8,No
2020/09/07,23:10,0.176,0.162,0.263,0.250,0.244,0.140,0.084,south,9.0,No
2020/09/07,23:20,0.178,0.161,0.261,0.249,0.247,0.140,0.083,south,9.5,No
2020/09/07,23:30,0.178,0.160,0.264,0.248,0.247,0.139,0.083,south,9.2,No
2020/09/07,23:40,0.177,0.161,0.266,0.253,0.245,0.140,0.084,south,8.5,No
2020/09/07,23:50,0.177,0.162,0.264,0.250,0.242,0.141,0.084,south,6.9,No
